| time (UTC) | temp F | wind direction | speed MPH | gust MPH | rain 1hr in | rain 24hr in | rain mn in | humidity % | barometer mb |
| 20260505022543 | 46 | 360 | 0.0 | 0.0 | 0.00 | 0.00 | 0.00 | 73 | 1006.7 |
| 20260505022038 | 46 | 360 | 0.0 | 0.0 | 0.00 | 0.00 | 0.00 | 72 | 1006.4 |
| 20260505021535 | 46 | 360 | 0.0 | 0.0 | 0.00 | 0.00 | 0.00 | 72 | 1006.3 |
| 20260505021027 | 46 | 360 | 0.0 | 0.0 | 0.00 | 0.00 | 0.00 | 72 | 1006.4 |
| 20260505020522 | 46 | 360 | 0.0 | 0.0 | 0.00 | 0.00 | 0.00 | 72 | 1006.4 |
| 20260505020009 | 46 | 360 | 0.0 | 0.0 | 0.00 | 0.00 | 0.00 | 72 | 1006.3 |
| 20260505015503 | 46 | 360 | 0.0 | 0.0 | 0.00 | 0.00 | 0.00 | 72 | 1006.3 |
| 20260505015059 | 46 | 360 | 0.0 | 0.0 | 0.00 | 0.00 | 0.00 | 71 | 1006.3 |
| 20260505014554 | 46 | 360 | 0.0 | 0.0 | 0.00 | 0.00 | 0.00 | 71 | 1006.2 |
| 20260505014048 | 46 | 360 | 0.0 | 0.0 | 0.00 | 0.00 | 0.00 | 70 | 1006.1 |
| 20260505013547 | 47 | 360 | 0.0 | 0.0 | 0.00 | 0.00 | 0.00 | 70 | 1006.1 |
| 20260505013040 | 47 | 360 | 0.0 | 0.0 | 0.00 | 0.00 | 0.00 | 70 | 1006.0 |
| 20260505012534 | 47 | 360 | 0.0 | 0.0 | 0.00 | 0.00 | 0.00 | 70 | 1005.9 |
| 20260505012028 | 48 | 360 | 0.0 | 0.0 | 0.00 | 0.00 | 0.00 | 70 | 1006.2 |
| 20260505011522 | 48 | 360 | 0.0 | 4.0 | 0.00 | 0.00 | 0.00 | 70 | 1006.3 |
| 20260505011018 | 48 | 360 | 0.0 | 4.0 | 0.00 | 0.00 | 0.00 | 68 | 1006.1 |
| 20260505010513 | 48 | 360 | 0.0 | 0.0 | 0.00 | 0.00 | 0.00 | 69 | 1006.0 |
| 20260505010014 | 49 | 360 | 0.0 | 2.0 | 0.00 | 0.00 | 0.00 | 68 | 1005.8 |
| 20260505005503 | 49 | 360 | 0.0 | 2.0 | 0.00 | 0.00 | 0.00 | 70 | 1005.7 |
| 20260505005100 | 49 | 360 | 0.0 | 0.0 | 0.00 | 0.00 | 0.00 | 68 | 1005.9 |
| 20260505004554 | 49 | 360 | 0.0 | 0.0 | 0.00 | 0.00 | 0.00 | 71 | 1005.7 |
| 20260505004047 | 49 | 360 | 0.0 | 0.0 | 0.00 | 0.00 | 0.00 | 69 | 1005.8 |
| 20260505003542 | 50 | 360 | 0.0 | 0.0 | 0.00 | 0.00 | 0.00 | 67 | 1005.9 |
| 20260505003046 | 50 | 360 | 0.0 | 0.0 | 0.00 | 0.00 | 0.00 | 63 | 1005.9 |
| 20260505002534 | 51 | 360 | 0.0 | 3.0 | 0.00 | 0.00 | 0.00 | 60 | 1006.0 |
| 20260505002025 | 52 | 360 | 0.0 | 4.0 | 0.00 | 0.00 | 0.00 | 58 | 1006.0 |
| 20260505001520 | 52 | 360 | 2.0 | 4.0 | 0.00 | 0.00 | 0.00 | 55 | 1006.1 |
| 20260505001101 | 53 | 360 | 0.0 | 0.0 | 0.00 | 0.00 | 0.00 | 54 | 1005.8 |
| 20260505000555 | 53 | 360 | 0.0 | 0.0 | 0.00 | 0.00 | 0.00 | 53 | 1005.8 |
| 20260505000059 | 53 | 360 | 0.0 | 3.0 | 0.00 | 0.00 | 0.00 | 55 | 1005.6 |
| 20260504235550 | 53 | 360 | 0.0 | 8.0 | 0.00 | 0.00 | 0.00 | 53 | 1005.5 |
| 20260504235042 | 53 | 360 | 3.0 | 8.0 | 0.00 | 0.00 | 0.00 | 50 | 1005.4 |
| 20260504234536 | 53 | 360 | 0.0 | 0.0 | 0.00 | 0.00 | 0.00 | 52 | 1005.2 |
| 20260504234031 | 53 | 360 | 0.0 | 5.0 | 0.00 | 0.00 | 0.00 | 52 | 1005.1 |
| 20260504233529 | 53 | 360 | 1.0 | 5.0 | 0.00 | 0.00 | 0.00 | 50 | 1004.8 |
| 20260504233022 | 53 | 360 | 0.0 | 1.0 | 0.00 | 0.00 | 0.00 | 53 | 1004.7 |
| 20260504232556 | 53 | 360 | 0.0 | 3.0 | 0.00 | 0.00 | 0.00 | 52 | 1004.8 |
| 20260504232050 | 54 | 360 | 0.0 | 5.0 | 0.00 | 0.00 | 0.00 | 47 | 1004.5 |
| 20260504231544 | 54 | 360 | 0.0 | 9.0 | 0.00 | 0.00 | 0.00 | 46 | 1004.0 |
| 20260504231039 | 55 | 360 | 2.0 | 15.0 | 0.00 | 0.00 | 0.00 | 44 | 1003.7 |
| 20260504230535 | 56 | 360 | 5.0 | 15.0 | 0.00 | 0.00 | 0.00 | 41 | 1003.5 |
| 20260504230029 | 57 | 360 | 4.0 | 9.0 | 0.00 | 0.00 | 0.00 | 39 | 1003.4 |
| 20260504225524 | 59 | 360 | 1.0 | 12.0 | 0.00 | 0.00 | 0.00 | 36 | 1003.3 |
| 20260504225017 | 60 | 360 | 2.0 | 10.0 | 0.00 | 0.00 | 0.00 | 33 | 1003.2 |
| 20260504224522 | 60 | 360 | 2.0 | 5.0 | 0.00 | 0.00 | 0.00 | 32 | 1002.9 |
| 20260504224009 | 60 | 360 | 2.0 | 6.0 | 0.00 | 0.00 | 0.00 | 32 | 1002.7 |
| 20260504223503 | 61 | 360 | 0.0 | 7.0 | 0.00 | 0.00 | 0.00 | 32 | 1002.7 |
| 20260504223108 | 61 | 152 | 2.0 | 7.0 | 0.00 | 0.00 | 0.00 | 33 | 1002.8 |
| 20260504222554 | 61 | 143 | 2.0 | 7.0 | 0.00 | 0.00 | 0.00 | 33 | 1002.8 |
| 20260504222048 | 61 | 163 | 3.0 | 7.0 | 0.00 | 0.00 | 0.00 | 33 | 1002.7 |
| 20260504221545 | 61 | 154 | 1.0 | 5.0 | 0.00 | 0.00 | 0.00 | 33 | 1002.9 |
| 20260504221038 | 61 | 83 | 0.0 | 0.0 | 0.00 | 0.00 | 0.00 | 33 | 1002.9 |
| 20260504220534 | 61 | 225 | 0.0 | 4.0 | 0.00 | 0.00 | 0.00 | 34 | 1002.6 |
| 20260504220029 | 61 | 238 | 0.0 | 8.0 | 0.00 | 0.00 | 0.00 | 34 | 1002.8 |
| 20260504215527 | 62 | 187 | 3.0 | 8.0 | 0.00 | 0.00 | 0.00 | 34 | 1002.8 |
| 20260504215017 | 62 | 161 | 2.0 | 7.0 | 0.00 | 0.00 | 0.00 | 34 | 1002.7 |
| 20260504214510 | 62 | 261 | 0.0 | 7.0 | 0.00 | 0.00 | 0.00 | 33 | 1002.9 |
| 20260504214004 | 62 | 159 | 3.0 | 7.0 | 0.00 | 0.00 | 0.00 | 33 | 1002.8 |
| 20260504213600 | 62 | 172 | 3.0 | 7.0 | 0.00 | 0.00 | 0.00 | 33 | 1002.9 |
| 20260504213101 | 62 | 233 | 2.0 | 5.0 | 0.00 | 0.00 | 0.00 | 34 | 1002.9 |
| 20260504212548 | 62 | 253 | 0.0 | 4.0 | 0.00 | 0.00 | 0.00 | 34 | 1002.9 |
| 20260504212040 | 62 | 168 | 2.0 | 7.0 | 0.00 | 0.00 | 0.00 | 34 | 1003.0 |
| 20260504211536 | 61 | 49 | 0.0 | 7.0 | 0.00 | 0.00 | 0.00 | 35 | 1003.1 |
| 20260504211029 | 61 | 114 | 0.0 | 0.0 | 0.00 | 0.00 | 0.00 | 36 | 1003.3 |
| 20260504210525 | 61 | 164 | 0.0 | 0.0 | 0.00 | 0.00 | 0.00 | 36 | 1003.4 |
| 20260504210021 | 61 | 360 | 0.0 | 0.0 | 0.00 | 0.00 | 0.00 | 36 | 1003.3 |
| 20260504205514 | 61 | 360 | 0.0 | 0.0 | 0.00 | 0.00 | 0.00 | 37 | 1003.5 |
| 20260504205009 | 61 | 11 | 0.0 | 0.0 | 0.00 | 0.00 | 0.00 | 36 | 1003.5 |
| 20260504204504 | 61 | 360 | 0.0 | 0.0 | 0.00 | 0.00 | 0.00 | 36 | 1003.3 |
| 20260504204102 | 61 | 198 | 0.0 | 0.0 | 0.00 | 0.00 | 0.00 | 36 | 1003.2 |
| 20260504203555 | 62 | 67 | 0.0 | 0.0 | 0.00 | 0.00 | 0.00 | 35 | 1003.3 |
| 20260504203050 | 62 | 146 | 0.0 | 0.0 | 0.00 | 0.00 | 0.00 | 35 | 1003.3 |
| 20260504202544 | 63 | 172 | 0.0 | 0.0 | 0.00 | 0.00 | 0.00 | 34 | 1003.2 |
| 20260504202039 | 62 | 87 | 0.0 | 0.0 | 0.00 | 0.00 | 0.00 | 35 | 1003.1 |
| 20260504201533 | 61 | 360 | 0.0 | 0.0 | 0.00 | 0.00 | 0.00 | 34 | 1003.2 |
| 20260504201030 | 62 | 102 | 0.0 | 0.0 | 0.00 | 0.00 | 0.00 | 34 | 1003.3 |
| 20260504200527 | 62 | 13 | 0.0 | 0.0 | 0.00 | 0.00 | 0.00 | 33 | 1003.2 |
| 20260504200020 | 63 | 141 | 0.0 | 3.0 | 0.00 | 0.00 | 0.00 | 32 | 1003.2 |
| 20260504195512 | 63 | 90 | 0.0 | 9.0 | 0.00 | 0.00 | 0.00 | 33 | 1003.2 |
| 20260504195007 | 64 | 36 | 0.0 | 10.0 | 0.00 | 0.00 | 0.00 | 31 | 1003.2 |
| 20260504194501 | 65 | 148 | 2.0 | 11.0 | 0.00 | 0.00 | 0.00 | 29 | 1003.0 |
| 20260504194057 | 66 | 259 | 2.0 | 11.0 | 0.00 | 0.00 | 0.00 | 29 | 1002.9 |
| 20260504193552 | 66 | 92 | 3.0 | 9.0 | 0.00 | 0.00 | 0.00 | 29 | 1002.9 |
| 20260504193049 | 67 | 132 | 1.0 | 7.0 | 0.00 | 0.00 | 0.00 | 23 | 1003.0 |
| 20260504192531 | 67 | 276 | 3.0 | 8.0 | 0.00 | 0.00 | 0.00 | 24 | 1003.0 |
| 20260504192030 | 68 | 128 | 3.0 | 8.0 | 0.00 | 0.00 | 0.00 | 23 | 1003.1 |
| 20260504191522 | 67 | 149 | 2.0 | 9.0 | 0.00 | 0.00 | 0.00 | 24 | 1003.1 |
| 20260504191018 | 67 | 157 | 2.0 | 7.0 | 0.00 | 0.00 | 0.00 | 25 | 1003.3 |
| 20260504190515 | 67 | 254 | 0.0 | 8.0 | 0.00 | 0.00 | 0.00 | 26 | 1003.3 |
| 20260504190004 | 67 | 223 | 4.0 | 8.0 | 0.00 | 0.00 | 0.00 | 26 | 1003.5 |
| 20260504185558 | 66 | 140 | 3.0 | 9.0 | 0.00 | 0.00 | 0.00 | 26 | 1003.4 |
| 20260504185052 | 65 | 244 | 2.0 | 10.0 | 0.00 | 0.00 | 0.00 | 28 | 1003.6 |
| 20260504184545 | 64 | 18 | 3.0 | 10.0 | 0.00 | 0.00 | 0.00 | 29 | 1003.5 |
| 20260504184040 | 62 | 171 | 0.0 | 6.0 | 0.00 | 0.00 | 0.00 | 27 | 1003.7 |
| 20260504183534 | 61 | 161 | 1.0 | 6.0 | 0.00 | 0.00 | 0.00 | 29 | 1003.7 |
| 20260504183034 | 62 | 88 | 1.0 | 8.0 | 0.00 | 0.00 | 0.00 | 28 | 1003.7 |
| 20260504182521 | 62 | 294 | 0.0 | 0.0 | 0.00 | 0.00 | 0.00 | 27 | 1003.8 |
| 20260504182021 | 62 | 307 | 0.0 | 2.0 | 0.00 | 0.00 | 0.00 | 28 | 1004.0 |
| 20260504181510 | 63 | 185 | 0.0 | 9.0 | 0.00 | 0.00 | 0.00 | 28 | 1004.0 |
| 20260504181004 | 63 | 130 | 0.0 | 9.0 | 0.00 | 0.00 | 0.00 | 27 | 1004.2 |
| 20260504180600 | 64 | 25 | 2.0 | 7.0 | 0.00 | 0.00 | 0.00 | 26 | 1004.3 |
| 20260504180054 | 64 | 196 | 1.0 | 10.0 | 0.00 | 0.00 | 0.00 | 25 | 1004.2 |
| 20260504175548 | 63 | 244 | 1.0 | 12.0 | 0.00 | 0.00 | 0.00 | 23 | 1004.3 |
| 20260504175046 | 64 | 167 | 3.0 | 13.0 | 0.00 | 0.00 | 0.00 | 23 | 1004.4 |
| 20260504174537 | 64 | 198 | 0.0 | 5.0 | 0.00 | 0.00 | 0.00 | 23 | 1004.5 |
| 20260504174031 | 64 | 236 | 0.0 | 9.0 | 0.00 | 0.00 | 0.00 | 22 | 1004.6 |
| 20260504173528 | 64 | 285 | 0.0 | 5.0 | 0.00 | 0.00 | 0.00 | 25 | 1004.9 |
| 20260504173018 | 64 | 234 | 0.0 | 5.0 | 0.00 | 0.00 | 0.00 | 27 | 1004.7 |
| 20260504172516 | 64 | 24 | 0.0 | 4.0 | 0.00 | 0.00 | 0.00 | 26 | 1004.9 |
| 20260504172006 | 64 | 35 | 0.0 | 0.0 | 0.00 | 0.00 | 0.00 | 26 | 1005.1 |
| 20260504171502 | 64 | 287 | 0.0 | 5.0 | 0.00 | 0.00 | 0.00 | 26 | 1005.2 |
| 20260504171059 | 64 | 115 | 0.0 | 5.0 | 0.00 | 0.00 | 0.00 | 26 | 1005.4 |
| 20260504170550 | 64 | 183 | 0.0 | 4.0 | 0.00 | 0.00 | 0.00 | 26 | 1005.4 |
| 20260504151037 | 46 | 360 | 0.0 | 0.0 | 0.00 | 0.00 | 0.00 | 51 | 1007.4 |
| 20260504150531 | 46 | 360 | 0.0 | 0.0 | 0.00 | 0.00 | 0.00 | 53 | 1007.6 |
| 20260504141013 | 39 | 360 | 0.0 | 0.0 | 0.00 | 0.00 | 0.00 | 59 | 1008.3 |
| 20260504140502 | 38 | 360 | 0.0 | 0.0 | 0.00 | 0.00 | 0.00 | 62 | 1008.2 |
| 20260504130553 | 35 | 360 | 0.0 | 0.0 | 0.00 | 0.00 | 0.00 | 69 | 1008.4 |
| 20260504110522 | 35 | 360 | 0.0 | 0.0 | 0.00 | 0.00 | 0.00 | 62 | 1008.4 |
| 20260504100515 | 36 | 360 | 0.0 | 0.0 | 0.00 | 0.00 | 0.00 | 60 | 1008.6 |
| 20260504081546 | 41 | 360 | 0.0 | 0.0 | 0.00 | 0.00 | 0.00 | 51 | 1009.1 |
| 20260504081038 | 41 | 360 | 0.0 | 0.0 | 0.00 | 0.00 | 0.00 | 51 | 1009.1 |
| 20260504080533 | 41 | 360 | 0.0 | 0.0 | 0.00 | 0.00 | 0.00 | 51 | 1009.2 |
| 20260504050548 | 48 | 360 | 0.0 | 0.0 | 0.00 | 0.00 | 0.00 | 45 | 1010.0 |
| 20260504045529 | 49 | 360 | 0.0 | 0.0 | 0.00 | 0.00 | 0.00 | 42 | 1010.0 |
| 20260504045032 | 49 | 360 | 0.0 | 0.0 | 0.00 | 0.00 | 0.00 | 43 | 1010.1 |
| 20260504044522 | 49 | 360 | 0.0 | 0.0 | 0.00 | 0.00 | 0.00 | 42 | 1010.1 |
| 20260504044015 | 49 | 360 | 0.0 | 0.0 | 0.00 | 0.00 | 0.00 | 43 | 1010.1 |
| 20260504043510 | 48 | 360 | 0.0 | 0.0 | 0.00 | 0.00 | 0.00 | 44 | 1010.2 |
| 20260504043010 | 49 | 360 | 0.0 | 0.0 | 0.00 | 0.00 | 0.00 | 45 | 1010.2 |
| 20260504042601 | 49 | 360 | 0.0 | 0.0 | 0.00 | 0.00 | 0.00 | 43 | 1010.1 |
| 20260504042059 | 49 | 360 | 0.0 | 0.0 | 0.00 | 0.00 | 0.00 | 44 | 1010.2 |
| 20260504041551 | 49 | 360 | 0.0 | 0.0 | 0.00 | 0.00 | 0.00 | 43 | 1010.2 |
| 20260504041045 | 49 | 360 | 0.0 | 0.0 | 0.00 | 0.00 | 0.00 | 44 | 1010.2 |
| 20260504040541 | 50 | 360 | 0.0 | 0.0 | 0.00 | 0.00 | 0.00 | 43 | 1010.2 |
| 20260504040039 | 50 | 360 | 0.0 | 0.0 | 0.00 | 0.00 | 0.00 | 44 | 1010.3 |
| 20260504035531 | 50 | 360 | 0.0 | 0.0 | 0.00 | 0.00 | 0.00 | 43 | 1010.3 |
| 20260504035027 | 50 | 360 | 0.0 | 0.0 | 0.00 | 0.00 | 0.00 | 43 | 1010.2 |
| 20260504034522 | 50 | 360 | 0.0 | 0.0 | 0.00 | 0.00 | 0.00 | 42 | 1010.2 |
| 20260504034017 | 51 | 360 | 0.0 | 0.0 | 0.00 | 0.00 | 0.00 | 42 | 1010.2 |
| 20260504033512 | 51 | 360 | 0.0 | 0.0 | 0.00 | 0.00 | 0.00 | 42 | 1010.2 |
| 20260504033006 | 51 | 360 | 0.0 | 0.0 | 0.00 | 0.00 | 0.00 | 41 | 1010.1 |
| 20260504032503 | 51 | 360 | 0.0 | 0.0 | 0.00 | 0.00 | 0.00 | 40 | 1010.1 |
| 20260504032159 | 51 | 360 | 0.0 | 0.0 | 0.00 | 0.00 | 0.00 | 40 | 1010.1 |
| 20260504031554 | 51 | 360 | 0.0 | 0.0 | 0.00 | 0.00 | 0.00 | 41 | 1010.1 |
| 20260504031044 | 51 | 360 | 0.0 | 0.0 | 0.00 | 0.00 | 0.00 | 40 | 1010.0 |
| 20260504030539 | 51 | 360 | 0.0 | 0.0 | 0.00 | 0.00 | 0.00 | 40 | 1010.1 |
| 20260504030046 | 52 | 360 | 0.0 | 0.0 | 0.00 | 0.00 | 0.00 | 40 | 1010.0 |
| 20260504025531 | 53 | 360 | 0.0 | 0.0 | 0.00 | 0.00 | 0.00 | 39 | 1010.0 |
| 20260504025025 | 53 | 360 | 0.0 | 0.0 | 0.00 | 0.00 | 0.00 | 37 | 1010.0 |
| 20260504024520 | 53 | 360 | 0.0 | 0.0 | 0.00 | 0.00 | 0.00 | 37 | 1009.9 |
| 20260504024014 | 53 | 360 | 0.0 | 0.0 | 0.00 | 0.00 | 0.00 | 36 | 1009.9 |
| 20260504023509 | 54 | 360 | 0.0 | 0.0 | 0.00 | 0.00 | 0.00 | 36 | 1009.7 |
| 20260504023007 | 54 | 360 | 0.0 | 0.0 | 0.00 | 0.00 | 0.00 | 36 | 1009.7 |